Regional Weather Roundup
Issued by NWS

Home | Current Version | Previous Version | Graphics & Text | Print | Product List | Glossary On
Versions: 1 2 3 4 5 6 7 8 9 10 11 12 13 14 15 16 17 18 19 20 21 22 23 24 25 26 27 28 29 30 31 32 33 34 35 36 37 38 39 40 41 42 43 44 45 46 47 48 49 50
000
ASUS43 KDTX 200110
RWRMI
MICHIGAN HOURLY REGIONAL WEATHER ROUNDUP
NATIONAL WEATHER SERVICE DETROIT/PONTIAC MI
800 PM EST FRI DEC 19 2014

NOTE: "FAIR" INDICATES FEW OR NO CLOUDS BELOW 12,000 FEET WITH NO
SIGNIFICANT WEATHER AND/OR OBSTRUCTION TO VISIBILITY.

MIZ047>049-052>055-059>063-066>070-074>076-081>083-200200-
SOUTHEAST LOWER MICHIGAN

CITY           SKY/WX    TMP DP  RH WIND       PRES   REMARKS
ADRIAN         CLOUDY    30  22  72 CALM      30.31F
ALMA           CLEAR     22  20  95 CALM      30.31F
ANN ARBOR      CLOUDY    28  22  78 CALM      30.32R
BAD AXE        CLEAR     18  18  97 CALM      30.31S
DETROIT CITY   CLEAR     28  19  69 W6        30.34R
DETROIT        PTCLDY    24  19  81 W6        30.34R
FLINT          CLEAR     25  18  74 SW5       30.32R
GROSSE ILE     CLOUDY    28  21  74 W5        30.32S
HILLSDALE      CLOUDY    30  25  84 CALM      30.27F
HOWELL         CLEAR     23  19  87 SW3       30.31R

CITY           SKY/WX    TMP DP  RH WIND       PRES   REMARKS
JACKSON        CLOUDY    29  21  72 CALM      30.29F
LAMBERTVILLE   CLOUDY    32  27  80 CALM      30.32F
LANSING        CLEAR     24  20  84 S5        30.33R
LAPEER         NOT AVBL
MASON          CLOUDY    27  21  80 CALM      30.31S
MONROE         CLOUDY    28  25  86 CALM      30.31S
MT. CLEMENS    CLOUDY    27  23  86 SW6       30.31R
PONTIAC        CLEAR     24  19  81 W6        30.30R
PORT HOPE        N/A     27  19  72 SW5       30.30R
PORT HURON     CLOUDY    28  23  80 CALM      30.32R
TRI CITIES     CLEAR     27  18  69 SW5       30.32R
YPSILANTI      CLOUDY    29  21  72 CALM      30.33S
$$
MIZ043>046-050>051-056>058-064>065-071>073-077>080-200200-
SOUTHWEST LOWER MICHIGAN

CITY           SKY/WX    TMP DP  RH WIND       PRES   REMARKS
BATTLE CREEK   CLEAR     26  19  74 E3        30.29F
BENTON HARBOR  CLOUDY    30  23  75 E3        30.28F
BIG RAPIDS     CLEAR     22  19  90 CALM      30.28S
COLDWATER      CLEAR     23  22  96 NE3       30.27F
HOLLAND        CLEAR     25  20  81 CALM      30.30F
GRAND RAPIDS   PTCLDY    25  19  78 CALM      30.30S
KALAMAZOO      CLEAR     25  20  81 SE3       30.28F
MARSHALL       CLEAR     23  19  86 CALM      30.29F
MUSKEGON       CLEAR     24  18  77 CALM      30.31S
$$
MIZ016>042-200200-
NORTHERN LOWER MICHIGAN

CITY           SKY/WX    TMP DP  RH WIND       PRES   REMARKS
ALPENA         CLEAR     16  13  88 CALM      30.31R
BEAVER ISLAND  CLEAR     15  14  95 CALM      30.30R
BELLAIRE       CLOUDY    28  22  81 CALM      30.31S
CADILLAC       CLOUDY    21  18  89 CALM      30.26S
CHARLEVOIX     CLOUDY    20  19  95 S3        30.33R
FRANKFORT      CLOUDY    29  24  82 CALM      30.30S
GAYLORD        CLEAR     15  11  83 CALM      30.26R
GRAYLING         N/A     11  10  92 CALM      30.29R FOG
HARBOR SPRINGS CLEAR     18  15  86 CALM      30.29S
HOUGHTON LAKE  CLEAR     18  13  80 CALM      30.28R
MANISTEE       CLOUDY    28  19  69 CALM      30.31S
OSCODA         CLEAR     13  12  95 CALM      30.31R
PELLSTON       CLEAR     11   9  92 CALM      30.30S FOG
TRAVERSE CITY  CLOUDY    28  20  71 W5        30.30R
$$
MIZ007>008-015-200200-
EASTERN UPPER MICHIGAN

CITY           SKY/WX    TMP DP  RH WIND       PRES   REMARKS
KINROSS        PTCLDY    12  10  92 CALM      30.28S
MACKINAC ISLAN CLEAR     17  15  94 CALM      30.29R
NEWBERRY       MOCLDY    16  15  98 CALM      30.27S
S. S. MARIE    PTCLDY    18  12  77 CALM      30.30R
$$
MIZ004>006-011>014-085-200200-
CENTRAL UPPER MICHIGAN

CITY           SKY/WX    TMP DP  RH WIND       PRES   REMARKS
MANISTIQUE     CLOUDY    28  23  81 CALM      30.28S
ESCANABA       CLOUDY    27  18  69 SW5       30.30R
MENOMINEE      CLEAR     21  16  79 CALM      30.29S
SAWYER-GWINN   CLOUDY    27  21  80 SW6       30.24S
$$
MIZ001>003-009>011-084-200200-
WESTERN UPPER MICHIGAN

CITY           SKY/WX    TMP DP  RH WIND       PRES   REMARKS
IRON MOUNTAIN  FOG       10   7  85 CALM      30.24S VSB 1/4
HOUGHTON       CLOUDY    25  19  78 CALM      30.22F
COPPER HARBOR    N/A     29  23  78 CALM      30.25S
IRONWOOD       CLOUDY    23  19  86 S3        30.19S
$$

ABBREVIATIONS USED IN REMARKS
   TC - TEMPERATURE IN CELSIUS
  WCI - WIND CHILL INDEX
   HX - HEAT INDEX
  VSB - VISIBILITY



USA.gov is the U.S. government's official web portal to all federal, state and local government web resources and services.